STARLINK-11358, 62558

Orbit data source: Space-Track

STARLINK-11358, 62558 is a payload satellite owned by SpaceX/Seattle (US) in LEO that was launched on Fri, 10 Jan 2025 UTC via an FALCON 9 launch vehicle from the Air Force Eastern Test Range (AFETR). Payload-class satellites include a variety of spacecraft equipped with specific instruments for various scientific and technological missions. These include communications satellites like Starlink; space stations such as the ISS; scientific satellites like the Hubble; Earth observation satellites from companies like Planet Labs, Umbra, and HawkEye 360; GPS; miniature CubeSats for education and research; and military/defense satellites.

Loading next visibility...
Identifier
62558, 2025-006E
Orbit
LEO
Country
Flag of USUS
Related business
Manufacturer
SpaceX/Seattle
Mission
Operational Commercial Communications
Bus & Motor
STARLINK V2MD, Unknown motor
Mass
960 kg wet, ~910 kg dry
Launch date (UTC)
2025-01-10 (1 year ago)
Launch vehicle
FALCON 9
Launch site
Air Force Eastern Test Range (AFETR)
Object type
Payload
Rocket body
Debris
Shape & HBR
Box + 2 Pan, 18.1 m
Radar Cross Section
36.964 m², Large (>1 m²)

Expand to show TLE details & history
Last TLE update: 1 day ago

TLE from 1 day ago
0 STARLINK-11358
1 62558U 25006E   26170.55340865  .00140859  00000-0  10813-2 0  9993
2 62558  42.9998 245.8287 0001969 263.0185  97.0458 15.70871553 82628
Epoch: 2026-06-19T13:16Z
TLE epoch observation values (Epoch: 2026-06-19T13:16:54.507Z)
Latitude
-0.00006°
Longitude
138.82079°
Altitude
356.339 km
Speed
7.697 km/s
True Right ascension
16h 23m 18s
True Declination
0° 00' 00"
Sunlit
Object was in full shadow at epoch
Visualization orbit readout
Latitude
Unknown
Longitude
Unknown
Altitude
Unknown
Speed
Unknown
Apparent Right ascension
Unknown
Apparent Declination
Unknown
Sunlit
N/A
Visualization observer readout
Local Sidereal Time
07:23:44
Azimuth
Unknown
Elevation
Unknown
Doppler factor
Unknown
Orbital elements
Apogee altitude
359.713 km
Perigee altitude
357.06 km
Semi-major axis
6,736.524 km
Eccentricity
0.0002
Inclination
42.9998°
RAAN
245.8287°
Arg. of periapsis
263.0185°
True anomaly
97.06819°
Mean anomaly
97.0458°
Eccentric anomaly
97.057°
Mean motion
3.92545 °/min
Orbital period
91.71 mins
BSTAR
0.0010813
Loading maneuver chart data...
Computing Atmospheric mass density...
Loading historical data...
Loading historical data...
Loading historical data...
Loading historical data...
Loading historical data...
Loading historical data...
Loading historical data...

Documentation

Showing up to 5 results
|